Location: Bouillancy
(49.1149°N, 2.9308°E)
Time: 07:33:30
(UTC+00:00)

Resurs 01 Rocket - Pass Details

Date: 30 September 2020
Orbit: 633 x 645 km, 98.0° (Epoch: 29 October)

Event Time Altitude Azimuth Distance (km) Brightness Sun altitude
Exits shadow 20:47:35 35° 312° (NW) 1,053 3.1 -31.6°
Drops below altitude 10° 20:50:26 10° 336° (NNW) 2,047 4.9 -31.9°
Sets 20:52:43 0° 342° (NNW) 2,959 5.8 -32.2°
